When you browse on this site, cookies collect data to enhance your experience and personalize the content and advertising you see.
Visit our Privacy Policy to learn more. By continuing to use the site, you agree to this use of cookies and data.
  • In Germany
  • List of Countries
  • For 7 days
  • Water Temperature
  • Satellite Maps
  • Weather Map
  • Weather Widgets
  • user-avatar
    Login

    Hourly Weather Armsheim

    Today, 20 January, Sunday

    Time Temperature Precipitation Wind Pressure Humidity
    00:00 -1°C° 0 mm 1 mps 744 mmHg 70%
    01:00 -1°C° 0 mm 1 mps 744 mmHg 69%
    02:00 -2°C° 0 mm 1 mps 744 mmHg 70%
    03:00 -2°C° 0 mm 1 mps 743 mmHg 70%
    04:00 -2°C° 0 mm 1 mps 743 mmHg 71%
    05:00 -2°C° 0 mm 1 mps 743 mmHg 71%
    06:00 -2°C° 0 mm 1 mps 743 mmHg 71%
    07:00 -2°C° 0 mm 1 mps 744 mmHg 72%
    08:00 -2°C° 0 mm 1 mps 744 mmHg 70%
    09:00 -1°C° 0 mm 1 mps 744 mmHg 67%
    10:00 -3°C° 0 mm 2 mps 745 mmHg 65%
    11:00 -2°C° 0 mm 2 mps 745 mmHg 61%
    12:00 -2°C° 0 mm 2 mps 745 mmHg 57%
    13:00 -1°C° 0 mm 2 mps 745 mmHg 53%
    14:00 -1°C° 0 mm 2 mps 745 mmHg 54%
    15:00 -1°C° 0 mm 2 mps 746 mmHg 55%
    16:00 -1°C° 0 mm 2 mps 746 mmHg 57%
    17:00 -2°C° 0 mm 2 mps 746 mmHg 60%
    18:00 -1°C° 0 mm 1 mps 746 mmHg 64%
    19:00 -1°C° 0 mm 1 mps 747 mmHg 68%
    20:00 -1°C° 0 mm 1 mps 747 mmHg 68%
    21:00 -1°C° 0 mm 1 mps 748 mmHg 68%
    22:00 -1°C° 0 mm 1 mps 748 mmHg 69%
    23:00 -2°C° 0 mm 1 mps 748 mmHg 68%

    Tomorrow, 21 January, Monday

    Time Temperature Precipitation Wind Pressure Humidity
    00:00 -2°C° 0 mm 1 mps 749 mmHg 68%
    01:00 -2°C° 0 mm 1 mps 749 mmHg 68%
    02:00 -4°C° 0 mm 2 mps 749 mmHg 68%
    03:00 -4°C° 0 mm 2 mps 749 mmHg 69%
    04:00 -4°C° 0 mm 2 mps 749 mmHg 69%
    05:00 -2°C° 0 mm 1 mps 750 mmHg 69%
    06:00 -2°C° 0 mm 1 mps 750 mmHg 70%
    07:00 -3°C° 0 mm 1 mps 750 mmHg 70%
    08:00 -2°C° 0 mm 1 mps 750 mmHg 68%
    09:00 -2°C° 0 mm 1 mps 750 mmHg 65%
    10:00 -1°C° 0 mm 1 mps 751 mmHg 63%
    11:00 0°C° 0 mm 1 mps 750 mmHg 59%
    12:00 0°C° 0 mm 1 mps 750 mmHg 56%
    13:00 +1°C° 0 mm 1 mps 750 mmHg 52%
    14:00 +1°C° 0 mm 1 mps 750 mmHg 53%
    15:00 +1°C° 0 mm 1 mps 749 mmHg 54%
    16:00 0°C° 0 mm 0 mps 749 mmHg 55%
    17:00 -1°C° 0 mm 0 mps 749 mmHg 58%
    18:00 -2°C° 0 mm 0 mps 749 mmHg 61%
    19:00 -2°C° 0 mm 0 mps 749 mmHg 64%
    20:00 -2°C° 0 mm 0 mps 749 mmHg 64%
    21:00 -2°C° 0 mm 0 mps 748 mmHg 64%
    22:00 -1°C° 0 mm 1 mps 748 mmHg 64%
    23:00 -2°C° 0 mm 1 mps 748 mmHg 65%

    Day after tomorrow, 22 January, Tuesday

    Time Temperature Precipitation Wind Pressure Humidity
    00:00 -2°C° 0 mm 1 mps 747 mmHg 65%
    01:00 -2°C° 0 mm 1 mps 746 mmHg 66%
    02:00 -2°C° 0 mm 1 mps 746 mmHg 67%
    03:00 -2°C° 0 mm 1 mps 745 mmHg 67%
    04:00 -2°C° 0 mm 1 mps 744 mmHg 68%
    05:00 -5°C° 0 mm 2 mps 744 mmHg 69%
    06:00 -5°C° 0 mm 2 mps 743 mmHg 69%
    07:00 -5°C° 0 mm 2 mps 742 mmHg 70%
    08:00 -4°C° 0 mm 2 mps 742 mmHg 69%
    09:00 -4°C° 0 mm 2 mps 741 mmHg 69%
    10:00 -4°C° 0 mm 3 mps 740 mmHg 68%
    11:00 -2°C° 0 mm 3 mps 740 mmHg 65%
    12:00 -1°C° 0 mm 3 mps 739 mmHg 61%
    13:00 0°C° 0 mm 3 mps 738 mmHg 58%
    14:00 0°C° 0 mm 3 mps 737 mmHg 58%
    15:00 -1°C° 0 mm 3 mps 736 mmHg 59%
    16:00 -1°C° 0 mm 2 mps 735 mmHg 60%
    17:00 -1°C° 0 mm 2 mps 734 mmHg 63%
    18:00 0°C° 0 mm 1 mps 734 mmHg 67%
    19:00 -1°C° 0 mm 1 mps 733 mmHg 70%
    20:00 -1°C° 0 mm 1 mps 733 mmHg 72%
    21:00 -1°C° 0 mm 1 mps 733 mmHg 74%
    22:00 -1°C° 0 mm 1 mps 733 mmHg 76%
    23:00 -1°C° 0 mm 1 mps 733 mmHg 78%

    23 January, Wednesday

    Time Temperature Precipitation Wind Pressure Humidity
    00:00 -2°C° 0 mm 1 mps 732 mmHg 80%
    01:00 -2°C° 0 mm 1 mps 732 mmHg 82%
    02:00 -2°C° 0 mm 1 mps 732 mmHg 83%
    03:00 -2°C° 0 mm 1 mps 732 mmHg 83%
    04:00 -2°C° 0 mm 1 mps 732 mmHg 84%
    05:00 -2°C° 0 mm 1 mps 732 mmHg 83%
    06:00 -2°C° 0 mm 1 mps 732 mmHg 83%
    07:00 -2°C° 0 mm 1 mps 733 mmHg 82%
    08:00 -2°C° 0 mm 1 mps 733 mmHg 80%
    09:00 -1°C° 0 mm 1 mps 734 mmHg 77%
    10:00 -1°C° 0 mm 1 mps 734 mmHg 75%
    11:00 0°C° 0 mm 1 mps 734 mmHg 70%
    12:00 +1°C° 0 mm 1 mps 735 mmHg 66%
    13:00 +1°C° 0 mm 1 mps 735 mmHg 61%
    14:00 +1°C° 0 mm 1 mps 735 mmHg 61%
    15:00 0°C° 0 mm 0 mps 735 mmHg 62%
    16:00 0°C° 0 mm 0 mps 736 mmHg 62%
    17:00 0°C° 0 mm 0 mps 736 mmHg 65%
    18:00 -1°C° 0 mm 0 mps 737 mmHg 67%
    19:00 -2°C° 0 mm 0 mps 737 mmHg 70%
    20:00 -2°C° 0 mm 0 mps 738 mmHg 71%
    21:00 -2°C° 0 mm 0 mps 738 mmHg 72%
    22:00 -2°C° 0 mm 0 mps 738 mmHg 73%
    23:00 -2°C° 0 mm 0 mps 739 mmHg 74%

    24 January, Thursday

    Time Temperature Precipitation Wind Pressure Humidity
    00:00 -2°C° 0 mm 0 mps 739 mmHg 76%
    01:00 -1°C° 0 mm 1 mps 739 mmHg 78%
    02:00 -1°C° 0 mm 1 mps 739 mmHg 80%
    03:00 -1°C° 0 mm 1 mps 740 mmHg 82%
    04:00 -1°C° 0 mm 1 mps 740 mmHg 84%
    05:00 -2°C° 0 mm 0 mps 740 mmHg 85%
    06:00 -2°C° 0 mm 0 mps 740 mmHg 86%
    07:00 -2°C° 0 mm 0 mps 741 mmHg 88%
    08:00 -2°C° 0 mm 0 mps 741 mmHg 86%
    09:00 -1°C° 0 mm 0 mps 742 mmHg 85%
    10:00 -1°C° 0 mm 0 mps 742 mmHg 83%
    11:00 0°C° 0 mm 0 mps 742 mmHg 80%
    12:00 +1°C° 0 mm 0 mps 742 mmHg 77%
    13:00 +1°C° 0 mm 0 mps 742 mmHg 73%
    14:00 +1°C° 0 mm 0 mps 742 mmHg 74%
    15:00 +1°C° 0 mm 0 mps 742 mmHg 75%
    16:00 +1°C° 0 mm 0 mps 742 mmHg 76%
    17:00 +1°C° 0 mm 0 mps 743 mmHg 79%
    18:00 0°C° 0 mm 0 mps 743 mmHg 82%
    19:00 0°C° 0 mm 0 mps 743 mmHg 85%
    20:00 +1°C° 0.1 mm 1 mps 744 mmHg 87%
    21:00 +1°C° 0.1 mm 1 mps 744 mmHg 88%
    22:00 +1°C° 0.1 mm 1 mps 744 mmHg 90%
    23:00 +1°C° 0 mm 1 mps 745 mmHg 91%

    25 January, Friday

    Time Temperature Precipitation Wind Pressure Humidity
    00:00 +1°C° 0 mm 1 mps 745 mmHg 91%
    01:00 0°C° 0 mm 1 mps 745 mmHg 92%
    02:00 0°C° 0 mm 1 mps 745 mmHg 92%
    03:00 0°C° 0 mm 1 mps 745 mmHg 92%
    04:00 -2°C° 0 mm 2 mps 746 mmHg 92%
    05:00 -2°C° 0 mm 2 mps 746 mmHg 92%
    06:00 -2°C° 0 mm 2 mps 746 mmHg 92%
    07:00 -2°C° 0 mm 2 mps 747 mmHg 92%
    08:00 -2°C° 0 mm 2 mps 748 mmHg 87%
    09:00 -2°C° 0 mm 2 mps 748 mmHg 82%
    10:00 -1°C° 0 mm 3 mps 749 mmHg 78%
    11:00 -1°C° 0 mm 2 mps 749 mmHg 72%
    12:00 +1°C° 0 mm 2 mps 749 mmHg 67%
    13:00 +1°C° 0 mm 2 mps 749 mmHg 62%
    14:00 +2°C° 0 mm 1 mps 750 mmHg 63%
    15:00 +2°C° 0 mm 1 mps 750 mmHg 64%
    16:00 +2°C° 0 mm 1 mps 750 mmHg 65%
    17:00 +1°C° 0 mm 1 mps 750 mmHg 68%
    18:00 -1°C° 0 mm 0 mps 751 mmHg 72%
    19:00 -2°C° 0 mm 0 mps 751 mmHg 75%
    20:00 -2°C° 0 mm 0 mps 751 mmHg 76%
    21:00 -2°C° 0 mm 0 mps 752 mmHg 77%
    22:00 -1°C° 0 mm 1 mps 752 mmHg 78%
    23:00 -1°C° 0 mm 1 mps 752 mmHg 78%
    Show more